Location: Gleizolles
(44.4833°N, 6.7667°E)
Time: 03:58:27
(UTC+00:00)

Vanguard 1 Rocket - Pass Details

Date: 24 June 2024
Orbit: 650 x 4219 km, 34.3° (Epoch: 15 July)

Event Time Altitude Azimuth Distance (km) Brightness Sun altitude
Rises 21:22:01 0° 167° (SSE) 4,524 - -15.6°
Reaches altitude 10° 21:28:41 10° 133° (SE) 4,409 - -16.2°
Maximum altitude 21:31:14 11° 121° (ESE) 4,658 - -16.4°
Exits shadow 21:32:01 11° 117° (ESE) 4,759 10.6 -16.5°
Drops below altitude 10° 21:34:05 10° 109° (ESE) 5,070 10.8 -16.7°
Sets 21:44:54 0° 81° (E) 7,215 11.8 -17.6°
